Date String (YYYY-MM-DD hh:mm:ss) UTC,Instrument flags,Ambient pressure (hPa),Sample flow (lpm),Bypass flow (lpm),Sample temperature (°C),Ambient temperature (°C),ASC tube jacket temperature (°C),LED temperature (°C),Box temperature (°C),Sample RH (%),Span deviation,Mass concentration (μg/m³),Mass concentration (μg/m³),Mass concentration (μg/m³)
DateTimeUTC,F1_M11,P_M11,Q1_M11,Q2_M11,T1_M11,T2_M11,T3_M11,T4_M11,T5_M11,U1_M11,ZSPAN_M11,X0_M11,X2_M11,X1_M11
2022-07-29 15:00:00,,0831.2,5.00,0.00,31.9,28.0,00.0,40.2,32.4,33.9,-001.2,0012.96,0008.94,0008.41
2022-07-29 15:01:00,,0831.2,5.01,0.00,31.9,27.9,00.0,40.2,32.4,34.7,-001.1,0012.27,0008.91,0008.41
2022-07-29 15:02:00,,0831.2,5.01,0.00,31.8,27.9,00.0,40.2,32.3,35.4,-001.1,0012.23,0008.95,0008.47
2022-07-29 15:03:00,,0831.2,5.00,0.00,31.9,28.0,00.0,40.1,32.5,35.1,-001.0,0012.14,0008.94,0008.51
2022-07-29 15:04:00,,0831.2,5.00,0.00,32.1,28.1,00.0,40.1,32.6,34.7,-000.8,0012.17,0008.96,0008.55
2022-07-29 15:05:00,,0831.3,5.00,0.00,32.2,28.3,00.0,40.1,32.6,34.5,-000.9,0012.29,0008.95,0008.56
2022-07-29 15:06:00,,0831.3,4.99,0.00,32.2,28.4,00.0,40.1,32.5,34.5,-001.0,0012.84,0008.93,0008.54
2022-07-29 15:07:00,,0831.3,5.01,0.00,32.2,28.6,00.0,40.2,32.5,34.3,-001.1,0013.41,0008.92,0008.52
2022-07-29 15:08:00,,0831.3,5.00,0.00,32.2,28.7,00.0,40.2,32.5,34.3,-001.0,0013.49,0008.96,0008.55
2022-07-29 15:09:00,,0831.3,5.00,0.00,32.2,28.8,00.0,40.2,32.6,34.5,-000.5,0013.35,0009.00,0008.59
2022-07-29 15:10:00,,0831.3,5.00,0.00,32.1,28.9,00.0,40.2,32.6,34.5,-000.6,0013.38,0009.07,0008.64
2022-07-29 15:11:00,,0831.3,5.01,0.00,32.1,29.0,00.0,40.3,32.6,34.5,-000.4,0013.39,0009.09,0008.66
2022-07-29 15:12:00,,0831.3,5.00,0.00,32.0,29.1,00.0,40.3,32.6,34.6,-000.2,0013.40,0009.09,0008.68
2022-07-29 15:13:00,,0831.3,5.00,0.00,32.0,29.0,00.0,40.3,32.6,34.9,-000.3,0013.40,0009.06,0008.64
2022-07-29 15:14:00,,0831.4,4.99,0.00,32.1,28.4,00.0,40.2,32.5,34.5,-000.4,0013.49,0009.10,0008.66
2022-07-29 15:15:00,,0831.3,5.01,0.00,32.0,27.9,00.0,40.2,32.4,34.5,-000.3,0013.53,0009.15,0008.69
2022-07-29 15:16:00,,0831.3,5.01,0.00,31.9,27.8,00.0,40.2,32.3,34.7,-000.3,0013.41,0009.19,0008.72
2022-07-29 15:17:00,,0831.3,5.00,0.00,31.8,27.8,00.0,40.2,32.2,35.0,-000.3,0012.75,0009.19,0008.75
2022-07-29 15:18:00,,0831.3,4.99,0.00,31.8,28.0,00.0,40.1,32.3,34.9,-000.3,0012.25,0009.21,0008.77
2022-07-29 15:19:00,,0831.3,4.99,0.00,31.9,28.1,00.0,40.1,32.4,35.0,-000.3,0012.12,0009.17,0008.74
2022-07-29 15:20:00,,0831.2,5.00,0.00,31.9,28.3,00.0,40.1,32.4,35.4,-000.5,0012.07,0009.11,0008.67
2022-07-29 15:21:00,,0831.2,5.01,0.00,32.2,28.4,00.0,40.1,32.6,34.9,-000.3,0011.91,0008.99,0008.56
2022-07-29 15:22:00,,0831.3,5.01,0.00,32.4,28.6,00.0,40.1,32.7,34.3,-000.1,0011.88,0008.94,0008.49
2022-07-29 15:23:00,,0831.4,5.00,0.00,32.4,28.7,00.0,40.1,32.7,34.0,-000.2,0011.87,0008.92,0008.46
2022-07-29 15:24:00,,0831.3,4.99,0.00,32.4,28.8,00.0,40.2,32.7,33.8,0000.0,0011.76,0008.90,0008.44
2022-07-29 15:25:00,,0831.4,5.00,0.00,32.4,28.9,00.0,40.2,32.6,34.1,0000.2,0011.60,0008.85,0008.42
2022-07-29 15:26:00,,0831.4,5.01,0.00,32.4,29.0,00.0,40.3,32.7,34.6,-000.3,0012.29,0008.85,0008.39
2022-07-29 15:27:00,,0831.4,4.99,0.00,32.4,29.0,00.0,40.3,32.7,33.9,-000.4,0012.33,0008.83,0008.35
2022-07-29 15:28:00,,0831.4,5.00,0.00,32.4,28.7,00.0,40.3,32.5,34.2,-000.8,0012.57,0008.85,0008.34
2022-07-29 15:29:00,,0831.4,5.01,0.00,32.3,28.0,00.0,40.3,32.4,34.4,-000.6,0012.96,0008.84,0008.31
2022-07-29 15:30:00,,0831.3,5.01,0.00,32.2,27.8,00.0,40.3,32.3,34.0,-000.5,0013.06,0008.87,0008.32
2022-07-29 15:31:00,,0831.4,5.00,0.00,32.0,27.8,00.0,40.3,32.3,34.3,-000.2,0013.16,0008.93,0008.37
2022-07-29 15:32:00,,0831.4,4.99,0.00,31.9,27.9,00.0,40.2,32.3,34.7,-000.2,0013.30,0009.02,0008.45
2022-07-29 15:33:00,,0831.3,5.01,0.00,31.8,28.1,00.0,40.2,32.3,35.1,-000.3,0013.36,0009.10,0008.54
2022-07-29 15:34:00,,0831.2,5.00,0.00,31.8,28.2,00.0,40.2,32.3,35.4,-000.2,0013.36,0009.13,0008.58
2022-07-29 15:35:00,,0831.3,5.01,0.00,32.0,28.4,00.0,40.2,32.5,34.7,-000.1,0013.40,0009.15,0008.60
2022-07-29 15:36:00,,0831.3,4.99,0.00,32.1,28.5,00.0,40.1,32.5,34.5,0000.0,0013.48,0009.16,0008.59
2022-07-29 15:37:00,,0831.3,5.01,0.00,32.1,28.6,00.0,40.1,32.5,34.6,0000.3,0013.05,0009.19,0008.60
2022-07-29 15:38:00,,0831.3,5.01,0.00,32.1,28.8,00.0,40.2,32.5,34.6,0000.7,0012.87,0009.19,0008.62
2022-07-29 15:39:00,,0831.3,4.99,0.00,32.1,28.9,00.0,40.2,32.6,34.7,0001.1,0012.65,0009.15,0008.61
2022-07-29 15:40:00,,0831.3,5.00,0.00,32.1,29.0,00.0,40.2,32.6,34.5,0001.0,0012.26,0009.16,0008.62
2022-07-29 15:41:00,,0831.3,5.01,0.00,32.1,29.0,00.0,40.2,32.6,34.8,0001.0,0012.22,0009.16,0008.60
2022-07-29 15:42:00,,0831.3,4.99,0.00,32.1,28.5,00.0,40.2,32.5,34.8,0000.6,0012.06,0009.06,0008.55
2022-07-29 15:43:00,,0831.3,4.99,0.00,32.0,27.9,00.0,40.2,32.3,34.7,0000.5,0012.02,0009.05,0008.54
2022-07-29 15:44:00,,0831.3,5.01,0.00,32.0,27.7,00.0,40.2,32.3,34.4,0000.6,0012.22,0009.01,0008.49
2022-07-29 15:45:00,,0831.2,5.00,0.00,31.9,27.7,00.0,40.1,32.3,34.5,0000.6,0012.69,0008.97,0008.45
2022-07-29 15:46:00,,0831.2,4.99,0.00,31.7,27.8,00.0,40.1,32.2,34.5,0000.6,0013.18,0008.95,0008.44
2022-07-29 15:47:00,,0831.2,5.02,0.00,31.7,28.0,00.0,40.1,32.2,35.2,0000.3,0013.29,0008.95,0008.45
2022-07-29 15:48:00,,0831.3,5.00,0.00,31.7,28.2,00.0,40.0,32.3,35.0,0000.4,0013.04,0008.89,0008.42
2022-07-29 15:49:00,,0831.2,5.00,0.00,31.9,28.3,00.0,40.0,32.5,34.6,0000.3,0013.07,0008.85,0008.37
2022-07-29 15:50:00,,0831.2,5.00,0.00,32.0,28.4,00.0,40.0,32.5,34.3,0000.4,0013.24,0008.85,0008.33
2022-07-29 15:51:00,,0831.2,5.00,0.00,32.0,28.6,00.0,40.0,32.5,34.2,0000.5,0013.14,0008.78,0008.29
2022-07-29 15:52:00,,0831.2,5.00,0.00,32.0,28.7,00.0,40.1,32.5,34.0,0000.6,0013.13,0008.76,0008.28
2022-07-29 15:53:00,,0831.2,5.00,0.00,32.0,28.8,00.0,40.1,32.5,34.2,0000.6,0013.17,0008.77,0008.28
2022-07-29 15:54:00,,0831.2,5.01,0.00,31.9,28.9,00.0,40.1,32.5,34.1,0000.7,0013.06,0008.74,0008.26
2022-07-29 15:55:00,,0831.3,5.00,0.00,31.9,29.0,00.0,40.1,32.5,34.1,0000.6,0013.16,0008.68,0008.21
2022-07-29 15:56:00,,0831.3,4.99,0.00,31.9,28.7,00.0,40.1,32.5,34.1,0000.4,0012.86,0008.64,0008.16
2022-07-29 15:57:00,,0831.3,5.01,0.00,31.8,28.1,00.0,40.1,32.3,33.7,0000.3,0012.16,0008.60,0008.12
2022-07-29 15:58:00,,0831.3,5.01,0.00,31.8,27.8,00.0,40.0,32.2,34.4,0000.5,0012.05,0008.56,0008.08
2022-07-29 15:59:00,,0831.3,5.00,0.00,31.6,27.7,00.0,40.0,32.2,34.5,0000.6,0012.07,0008.57,0008.09
